SCP
0 0 0 0 0 0 0 0 0 0 0 0 0 0 0 0 0 0 0 0 0 0 0 0 0 0 0 0 0 0 0 0 0 0 0 0 0 0 0 0 0 0 0
0 0 0 0 0 0 0 0 0 0 0 0 0 0 0 0 0 0 0 0 0 0 0 0 0 0 0 0 0 0 0 0 0 0 0 0 0 0 0 0 0 0 0
0 0 0 0 0 0 0 0 0 0 0 0 0 0 0 0 0 0 0 0 0 0 0 0 0 0 0 0 0 0 0 0 0 0 0 0 0 0 0 0 0 0 0
0 0 0 0 0 0 0 0 0 0 0 0 0 0 0 0 0 0 0 0 0 0 0 0 0 0 0 0 0 0 0 0 0 0 0 0 0 0 0 0 0 0 0
0 0 0 0 0 0 0 0 0 0 0 0 0 0 0 0 0 0 0 0 0 0 0 0 0 0 0 0 0 0 0 0 0 0 0 0 0 0 0 0 0 0 0
0 0 0 0 0 0 0 0 0 0 0 0 0 0 0 0 0 0 0 0 0 0 0 0 0 0 0 0 0 0 0 0 0 0 0 0 0 0 0 0 0 0 0
0 0 0 0 0 0 0 0 0 0 0 0 0 0 0 0 0 0 0 0 0 0 0 0 0 0 0 0 0 0 0 0 0 0 0 0 0 0 0 0 0 0 0
0 0 0 0 0 0 0 0 0 0 0 0 0 0 0 0 0 0 0 0 0 0 0 0 0 0 0 0 0 0 0 0 0 0 0 0 0 0 0 0 0 0 0
0 0 0 0 0 0 0 0 0 0 0 0 0 0 0 0 0 0 0 0 0 0 0 0 0 0 0 0 0 0 0 0 0 0 0 0 0 0 0 0 0 0 0
0 0 0 0 0 0 0 0 0 0 0 0 0 0 0 0 0 0 0 0 0 0 0 0 0 0 0 0 0 0 0 0 0 0 0 0 0 0 0 0 0 0 0
0 0 0 0 0 0 0 0 0 0 0 0 0 0 0 0 0 0 0 0 0 0 0 0 0 0 0 0 0 0 0 0 0 0 0 0 0 0 0 0 0 0 0
0 0 0 0 0 0 0 0 0 0 0 0 0 0 0 0 0 0 0 0 0 0 0 0 0 0 0 0 0 0 0 0 0 0 0 0 0 0 0 0 0 0 0
0 0 0 0 0 0 0 0 0 0 0 0 0 0 0 0 0 0 0 -0 -0 -0 -0 0 0 0 0 0 0 0 0 0 0 0 0 0 0 0 0 0 0 0 0
0 0 0 0 0 0 0 0 0 0 0 0 0 0 0 0 0 0 -0 -0 0 0 0 0 0 0 0 0 0 0 0 0 0 0 0 0 0 0 0 0 0 0 0
0 0 0 0 0 0 0 0 0 0 0 0 0 0 0 0 0 0 0 0 0 0 0 0 0 0 0 0 0 0 0 0 0 0 0 0 0 0 0 0 0 0 0
0 0 0 0 0 0 0 0 0 0 0 0 0 0 0 0 0 0 0 0 0 0 0 0 0 0 0 0 0 0 0 0 0 0 0 0 0 0 0 0 0 0 0
0 0 0 0 0 0 0 0 0 0 0 0 0 0 0 0 0 0 0 0 0 0 0 0 0 0 0 0 0 0 0 0 0 0 0 0 0 0 0 0 0 0 0
0 0 0 0 0 0 0 0 0 0 0 0 0 -0 -0 -0 0 0 0 0 0 0 0 0 0 0 0 0 0 0 0 0 0 0 0 0 0 0 0 0 0 0 0
0 0 0 0 0 0 0 0 0 0 -0 -0 -0 -0 -0 -0 0 0 0 0 0 0 0 0 0 0 0 0 0 0 0 0 0 0 0 0 0 0 0 0 0 0 0
0 0 0 0 0 0 0 -0 -0 -0 -0 -0 -0 0 0 0 0 0 0 0 0 0 0 0 0 0 0 0 0 0 0 0 0 0 0 0 0 0 0 0 0 0 0
0 0 0 0 0 0 0 -0 -0 -0 -0 0 0 0 0 0 0 0 0 0 0 0 0 0 0 0 0 0 0 0 0 0 0 0 0 0 0 0 0 0 0 0 0
0 0 0 0 0 0 0 -0 -0 0 0 0 0 0 0 0 0 0 0 0 0 0 0 0 0 0 0 0 0 0 0 0 0 0 0 0 0 0 0 0 0 0 0
0 0 0 0 0 0 0 0 0 0 0 0 0 0 0 0 0 0 0 0 0 0 0 0 0 0 0 0 0 0 0 0 0 0 0 0 0 0 0 0 0 0 0
0 0 0 0 0 0 0 0 0 0 0 0 0 0 0 0 0 0 0 0 0 0 0 0 0 0 0 0 0 0 0 0 0 0 0 0 0 0 0 0 0 0 0
0 0 0 0 0 0 0 0 0 0 0 0 0 0 0 0 0 0 0 0 0 0 0 0 0 0 0 0 0 0 0 0 0 0 0 0 0 0 0 0 0 0 0
0 0 0 0 0 0 0 0 0 0 0 0 0 0 0 0 0 0 0 0 0 0 0 0 0 0 0 0 0 0 0 0 0 0 0 0 0 0 0 0 0 0 0
Wind_Speed
3 3 2 2 2 2 3 3 4 5 5 6 6 7 7 8 7 7 4 5 9 11 12 13 13 13 13 13 13 13 13 14 14 14 14 14 15 15 15 15 15 16 16
3 3 3 3 3 3 3 4 5 5 5 5 7 7 8 8 8 8 7 5 6 8 10 11 11 11 12 12 12 12 13 13 14 14 14 15 15 15 16 16 16 16 16
4 3 3 3 3 3 4 4 5 5 5 6 7 7 7 8 8 9 8 6 5 3 5 7 8 9 10 11 11 12 12 13 14 14 15 15 16 16 16 17 17 17 18
5 4 3 3 2 2 3 4 4 5 5 5 6 6 7 7 9 8 7 5 4 4 2 3 6 7 9 10 11 11 12 13 14 14 15 16 16 16 17 17 18 18 18
5 4 3 2 2 2 3 3 4 5 6 6 6 7 7 7 7 6 6 4 3 3 3 1 3 5 8 10 11 12 13 14 15 15 16 16 17 17 18 18 18 19 19
5 4 2 3 2 2 2 3 4 4 5 5 7 7 7 6 5 4 4 3 2 3 4 5 4 3 6 9 12 13 15 16 16 17 17 18 18 18 19 19 20 20 20
5 4 3 2 2 2 2 3 4 5 4 4 6 6 6 4 4 3 3 3 4 4 5 5 5 6 5 9 11 13 15 16 17 18 18 18 19 19 20 20 21 21 21
5 3 4 3 2 2 3 2 3 4 3 3 4 5 5 3 1 3 4 5 6 5 5 6 7 8 8 7 8 12 14 16 17 18 19 19 20 20 20 21 21 22 22
5 5 4 3 2 3 2 3 3 4 4 3 3 4 4 5 6 4 5 5 6 5 6 7 9 9 9 8 8 9 13 16 18 19 19 19 20 21 21 21 22 22 22
5 5 4 4 3 2 3 3 3 3 4 4 3 4 5 5 5 6 4 5 6 8 9 8 9 9 9 8 8 12 13 16 18 19 20 20 21 21 22 22 22 22 23
5 5 4 4 3 3 3 3 3 4 4 4 4 4 5 5 7 6 8 8 7 7 7 9 8 9 9 8 7 9 14 17 18 19 20 21 22 22 23 23 23 23 23
5 6 5 4 4 3 3 4 4 5 5 5 5 5 5 5 5 6 9 10 10 8 9 8 8 8 7 8 9 11 15 18 19 19 20 21 21 22 23 23 24 24 24
5 6 5 5 4 4 4 4 5 5 6 6 6 5 6 7 7 7 9 10 11 10 9 7 7 7 7 8 8 11 15 18 18 19 20 21 21 22 23 23 24 24 25
5 6 6 5 5 5 4 5 5 6 6 7 8 8 6 7 7 7 8 9 11 10 9 10 7 8 7 8 10 14 14 17 18 19 21 21 22 22 23 23 24 24 25
4 6 6 5 5 5 5 6 5 6 6 7 8 8 8 7 7 7 8 8 9 11 11 10 8 8 8 9 12 12 14 17 20 21 22 22 22 22 23 23 24 24 24
6 6 6 6 6 6 6 6 6 7 8 8 7 9 9 7 7 7 8 8 9 11 13 9 10 12 12 11 15 15 15 20 21 21 21 21 22 23 23 23 24 24 24
6 6 6 6 6 7 7 7 8 8 9 9 9 10 11 10 9 8 8 9 10 10 14 13 12 12 15 15 13 13 13 14 13 19 21 21 22 23 23 24 23 24 24
6 6 6 6 7 7 7 8 9 9 10 11 11 11 12 9 12 10 9 11 10 11 13 17 13 12 15 14 14 15 13 12 12 17 21 22 23 24 23 23 23 23 23
6 6 6 7 7 7 8 8 9 10 11 12 12 12 12 12 13 11 12 11 10 11 12 13 14 12 11 11 13 14 14 13 13 14 18 20 21 22 22 23 23 23 22
6 6 7 7 7 8 8 8 9 11 12 12 12 12 13 13 14 14 12 13 12 12 12 13 13 12 11 12 11 11 11 11 11 11 14 16 19 21 22 22 22 21 21
6 6 7 7 8 7 7 8 9 11 12 13 13 13 14 15 17 15 12 12 12 11 11 12 12 12 11 10 10 10 11 11 11 11 11 11 11 11 12 15 18 18 19
6 6 8 8 9 7 10 13 12 11 12 13 14 14 14 15 17 20 22 22 20 16 14 13 13 13 15 13 11 10 11 12 12 8 10 10 10 11 11 11 15 18 19
6 7 8 9 10 10 12 15 16 13 14 14 14 13 12 12 16 14 17 20 20 23 23 18 16 16 16 14 14 14 13 13 12 10 10 12 11 12 11 11 18 19 20
6 7 8 9 10 10 13 15 16 14 14 14 14 14 14 14 13 14 14 15 16 16 17 15 14 16 16 15 14 14 14 13 12 10 10 11 11 11 11 10 15 17 17
7 7 8 9 10 11 12 14 15 11 11 14 14 14 14 15 18 20 16 15 16 15 17 22 23 23 25 25 20 11 9 9 11 10 8 8 9 10 10 10 10 12 13
7 7 8 9 11 12 12 14 15 10 11 12 12 12 15 17 19 21 16 15 16 15 14 14 16 18 17 17 20 13 9 9 10 9 6 6 8 7 7 6 6 6 7
Wind_Direction
208 213 230 237 258 274 276 285 287 297 295 299 298 299 300 300 299 299 293 283 295 301 302 303 304 304 304 303 301 300 298 296 293 290 287 284 282 280 277 274 270 267 265
218 226 236 245 259 266 279 283 288 294 296 299 300 301 299 300 297 298 299 293 277 295 305 307 309 310 309 309 308 306 304 302 300 299 297 293 289 285 281 277 275 273 270
215 222 239 249 259 270 275 281 289 291 294 296 294 299 300 298 298 296 298 300 299 287 301 315 319 318 318 317 316 313 311 308 305 303 301 299 296 292 287 283 279 276 274
208 218 236 250 258 265 274 283 290 291 292 297 301 304 297 294 292 298 296 294 299 303 290 340 332 330 329 325 320 317 314 310 307 304 301 299 298 296 292 288 284 280 278
203 216 230 242 247 258 269 281 286 298 301 305 304 300 295 294 298 293 291 296 295 298 304 319 308 320 325 323 320 316 312 308 305 302 300 298 296 294 292 290 287 283 280
193 204 211 223 233 244 261 274 285 289 297 307 303 294 291 294 288 286 290 279 277 291 297 306 294 291 301 311 314 311 308 306 303 300 298 296 294 292 290 288 286 284 281
183 189 196 201 220 245 264 279 287 290 294 315 302 300 290 273 282 272 276 286 282 291 292 295 298 309 300 300 299 305 307 305 302 299 297 295 293 290 288 286 285 283 281
175 182 192 195 205 230 242 261 280 293 300 310 311 311 310 282 214 272 287 289 291 289 287 290 301 302 300 301 300 300 303 303 303 300 297 295 293 290 289 287 285 283 282
173 175 186 194 200 229 245 255 268 277 291 290 289 301 307 312 320 281 280 287 288 289 291 299 299 298 297 295 295 297 303 305 302 300 299 296 294 292 290 288 287 285 284
175 177 184 195 204 223 239 248 257 269 276 281 276 262 272 291 294 303 283 276 287 292 293 296 297 297 295 293 290 293 300 303 302 301 299 298 297 294 292 291 290 289 287
177 180 189 197 209 224 239 246 250 257 261 271 274 271 266 267 260 272 291 298 292 281 286 291 291 292 294 292 291 298 303 302 301 300 300 299 298 296 294 293 291 290 288
181 186 193 205 216 226 233 241 248 253 258 263 264 260 261 262 265 267 279 293 296 297 295 289 285 287 291 292 290 296 298 298 298 299 299 298 297 295 294 292 290 288 286
188 190 196 210 217 223 233 241 247 254 254 257 258 261 261 261 268 271 276 286 290 293 291 283 277 283 288 290 291 298 295 294 294 295 296 296 295 294 292 291 289 288 286
191 188 200 214 223 228 233 238 248 250 253 253 258 261 261 261 261 260 267 282 290 289 283 282 287 282 283 289 293 298 290 290 292 294 294 293 292 292 291 289 288 286 286
183 192 204 216 225 231 238 245 249 252 254 256 259 260 260 261 259 260 260 262 272 286 289 292 290 289 290 289 292 290 290 291 293 292 290 290 291 291 290 289 288 286 285
187 197 209 220 229 236 240 244 253 256 259 259 260 262 262 262 261 258 257 259 258 267 278 283 287 287 289 285 287 288 287 290 286 286 287 288 290 290 290 288 287 286 285
195 205 214 224 234 242 246 249 253 257 259 263 260 260 263 265 265 262 260 259 259 262 272 280 282 286 288 286 286 285 286 287 286 285 286 288 289 289 289 287 287 286 285
201 211 219 231 240 246 250 254 259 260 261 264 266 265 266 267 264 265 263 262 264 265 271 281 285 287 286 286 286 286 286 285 284 286 286 287 288 287 287 287 286 285 284
207 213 223 235 243 248 252 257 262 265 265 267 268 268 269 269 268 267 267 268 268 270 270 276 282 284 284 282 284 281 282 282 283 284 284 284 285 285 286 286 285 284 284
212 221 231 241 248 253 254 259 263 267 268 268 268 266 267 267 268 271 271 271 272 272 271 273 277 281 280 281 280 282 284 283 284 286 284 284 284 284 283 283 283 283 283
220 230 240 246 250 252 251 254 262 266 269 271 269 267 265 264 266 269 269 270 269 268 270 272 275 278 279 280 279 281 282 287 285 284 283 283 286 285 286 283 281 278 279
227 236 244 251 255 254 256 260 266 270 270 271 272 272 271 267 267 268 269 271 271 272 273 273 275 276 279 281 282 280 282 285 287 282 283 285 288 285 282 279 281 284 283
235 244 250 255 260 262 261 266 268 273 273 273 274 276 275 273 275 274 275 275 274 272 270 272 274 275 279 280 281 280 276 276 278 283 286 284 284 281 281 279 281 282 282
241 250 256 261 266 268 268 271 276 274 273 273 273 274 275 277 275 277 278 276 273 271 269 268 267 272 274 276 274 274 276 276 276 272 269 278 283 283 285 284 283 281 282
249 256 262 265 268 272 270 274 278 279 275 275 274 272 273 275 277 278 278 277 278 276 273 270 270 273 275 276 274 273 272 274 277 277 273 272 281 287 289 286 281 280 282
256 264 265 267 270 275 277 277 279 277 278 279 277 274 271 273 278 281 279 279 279 282 283 282 277 276 275 274 274 268 269 272 279 283 276 271 280 292 290 282 287 292 287